Location: Oshawa
(43.9000°N, 78.8670°W)
Time: 15:25:35
(UTC-04:00)

Transit 2A Rocket - Visible Passes

Search period start: 26 April 2015 00:00
Search period end: 06 May 2015 00:00
Orbit: 585 x 921 km, 66.7° (Epoch: 26 April)

Date Brightness Start Highest point End Pass type
(mag) Time Alt. Az. Time Alt. Az. Time Alt. Az.
26 Apr 7.9 04:49:11 10° N 04:53:31 21° NE 04:57:42 10° E visible
26 Apr 5.4 21:05:52 10° SSW 21:11:45 59° ESE 21:17:48 10° NE visible
26 Apr 7.2 22:49:28 10° WSW 22:54:52 31° NW 23:00:13 10° NNE visible
27 Apr 8.5 00:38:35 10° NNW 00:39:39 10° NNW 00:40:32 10° NNW visible
27 Apr 8.2 04:07:31 10° N 04:10:52 16° NNE 04:14:14 10° ENE visible
27 Apr 6.5 22:06:39 10° WSW 22:12:29 45° NW 22:18:20 10° NNE visible
27 Apr 8.4 23:53:50 10° WNW 23:56:51 13° NNW 23:59:40 10° N visible
28 Apr 8.4 03:26:10 10° N 03:28:08 12° NNE 03:30:12 10° NE visible
28 Apr 6.7 05:07:13 10° NNW 05:12:38 39° NE 05:17:37 10° ESE visible
28 Apr 5.8 21:24:11 10° SW 21:30:13 67° NW 21:36:22 10° NNE visible
28 Apr 8.1 23:10:00 10° WNW 23:14:08 18° NNW 23:18:07 10° N visible
29 Apr 7.4 04:25:21 10° NNW 04:30:12 27° NE 04:34:46 10° E visible
29 Apr 5.4 20:42:02 10° SSW 20:48:05 81° ESE 20:54:16 10° NNE visible
29 Apr 7.7 22:26:34 10° W 22:31:32 24° NW 22:36:24 10° NNE visible
30 Apr 7.9 03:43:36 10° N 03:47:38 19° NE 03:51:34 10° E visible
30 Apr 5.2 05:25:35 10° NNW 05:31:20 85° ENE 05:36:30 10° SSE visible
30 Apr 7.2 21:43:30 10° WSW 21:49:03 34° NW 21:54:34 10° NNE visible
30 Apr 8.6 23:31:56 10° NW 23:33:43 11° NNW 23:35:18 10° N visible
01 May 8.3 03:02:00 10° N 03:04:58 14° NNE 03:07:58 10° ENE visible
01 May 6.0 04:43:31 10° NNW 04:49:08 53° NE 04:54:15 10° SE visible
01 May 6.5 21:00:47 10° SW 21:06:42 50° NW 21:12:39 10° NNE visible
01 May 8.4 22:47:35 10° WNW 22:50:56 15° NNW 22:54:06 10° N visible
02 May 8.5 02:20:55 10° N 02:22:11 11° NNE 02:23:35 10° NE visible
02 May 6.8 04:01:35 10° NNW 04:06:48 35° NE 04:11:39 10° ESE visible
02 May 8.2 22:03:51 10° W 22:08:15 20° NW 22:12:30 10° N visible
03 May 7.5 03:19:44 10° NNW 03:24:20 24° NE 03:28:42 10° E visible
03 May 5.0 05:02:01 10° NW 05:07:38 68° WSW 05:12:42 10° SSE visible
03 May 7.7 21:20:32 10° W 21:25:41 27° NW 21:30:44 10° NNE visible
04 May 7.9 02:38:01 10° N 02:41:44 17° NNE 02:45:24 10° ENE visible
04 May 5.3 04:19:52 10° NNW 04:25:34 74° ENE 04:30:42 10° SE visible
04 May 8.5 22:25:29 10° NW 22:27:47 12° NNW 22:29:52 10° N visible
05 May 8.1 01:56:32 10° N 01:59:01 13° NNE 02:01:36 10° NE visible
05 May 6.1 03:37:50 10° NNW 03:43:20 47° NE 03:48:20 10° SE visible
05 May 5.9 05:21:05 10° NW 05:25:44 28° WSW 05:29:57 10° SSW visible
05 May 8.2 21:41:20 10° WNW 21:45:01 16° NNW 21:48:30 10° N visible
